DW6399 Weather Reports


time (UTC)temp
F
wind
direction
speed
knots
gust
knots
rain 1hr
in
rain 24hr
in
rain mn
in
humidity
%
barometer
mb
20260906221804 39 320 3.5 5.2 0.00 0.00 0.00 86 1010.7
20260906220904 39 320 3.5 5.2 0.00 0.00 0.00 86 1010.7
20260906220004 39 320 3.5 5.2 0.00 0.00 0.00 86 1010.6
20260906215404 39 320 3.5 5.2 0.00 0.00 0.00 86 1010.6
20260906214525 39 320 3.5 4.3 0.00 0.00 0.00 87 1010.4
20260906213604 40 320 3.5 7.0 0.00 0.00 0.00 86 1010.4
20260906212704 40 321 2.6 7.0 0.00 0.00 0.00 85 1010.3
20260906211804 41 321 4.3 7.0 0.00 0.00 0.00 85 1010.3
20260906210904 41 326 4.3 7.8 0.00 0.00 0.00 84 1010.2
20260906210005 41 325 4.3 7.0 0.00 0.00 0.00 84 1010.2
20260906205404 41 329 4.3 7.0 0.00 0.00 0.00 84 1010.2
20260906204525 42 324 5.2 7.8 0.00 0.00 0.00 83 1010.1
20260906203604 42 323 5.2 9.6 0.00 0.00 0.00 82 1010.1
20260906202704 42 325 6.1 9.6 0.00 0.00 0.00 82 1010.0
20260906201804 42 324 4.3 8.7 0.00 0.00 0.00 83 1009.9
20260906200904 42 324 4.3 7.8 0.00 0.00 0.00 83 1009.7
20260906200004 41 317 4.3 7.0 0.00 0.00 0.00 84 1009.7
20260906195404 41 312 4.3 7.0 0.00 0.00 0.00 84 1009.6
20260906194504 41 313 3.5 7.0 0.00 0.00 0.00 84 1009.6
20260906193604 41 315 4.3 7.8 0.00 0.00 0.00 84 1009.6
20260906192704 40 316 4.3 7.8 0.00 0.00 0.00 85 1009.5
20260906191804 40 315 4.3 7.0 0.00 0.00 0.00 85 1009.5
20260906190904 40 313 4.3 7.0 0.00 0.00 0.00 85 1009.6
20260906190004 40 322 4.3 7.8 0.00 0.00 0.00 85 1009.5
20260906185404 40 321 4.3 7.8 0.00 0.00 0.00 85 1009.5
20260906184504 40 315 4.3 7.0 0.00 0.00 0.00 85 1009.5
20260906183604 40 315 4.3 8.7 0.00 0.00 0.00 84 1009.5
20260906182704 40 315 4.3 7.8 0.00 0.00 0.00 84 1009.5
20260906181804 40 316 4.3 7.8 0.00 0.00 0.00 84 1009.5
20260906180904 40 313 4.3 7.8 0.00 0.00 0.00 84 1009.5
20260906180004 40 311 3.5 6.1 0.00 0.00 0.00 84 1009.5
20260906175404 40 312 3.5 6.1 0.00 0.00 0.00 83 1009.4
20260906174525 40 321 3.5 6.1 0.00 0.00 0.00 83 1009.4
20260906173604 41 323 3.5 6.1 0.00 0.00 0.00 82 1009.3
20260906172725 42 323 3.5 7.0 0.00 0.00 0.00 81 1009.2
20260906171804 42 323 4.3 8.7 0.00 0.00 0.00 80 1009.0
20260906170925 42 323 5.2 9.6 0.00 0.00 0.00 80 1009.0
20260906170004 43 327 5.2 9.6 0.00 0.00 0.00 79 1008.9
20260906165404 43 329 6.1 9.6 0.00 0.00 0.00 78 1008.9
20260906164504 44 331 6.1 12.2 0.00 0.00 0.00 77 1008.8
20260906163604 44 330 7.8 14.8 0.00 0.00 0.00 77 1008.8
20260906162704 44 333 7.8 14.8 0.00 0.00 0.00 76 1008.7
20260906161804 45 328 9.6 18.2 0.00 0.00 0.00 75 1008.6
20260906160904 45 328 8.7 15.6 0.00 0.00 0.00 74 1008.5
20260906160004 46 329 8.7 14.8 0.00 0.00 0.00 74 1008.5
20260906155404 46 329 9.6 18.2 0.00 0.00 0.00 74 1008.4
20260906154504 47 329 7.8 17.4 0.00 0.00 0.00 73 1008.3
20260906153604 47 319 9.6 17.4 0.00 0.00 0.00 73 1008.2
20260906152704 47 319 9.6 19.1 0.00 0.00 0.00 72 1008.2
20260906151804 47 325 9.6 19.1 0.00 0.00 0.00 73 1008.0
20260906150904 47 328 10.4 16.5 0.00 0.00 0.00 74 1007.9
20260906150004 46 327 9.6 16.5 0.00 0.00 0.00 75 1007.8
20260906145425 46 327 9.6 16.5 0.00 0.00 0.00 76 1007.8
20260906144504 46 329 7.8 14.8 0.00 0.00 0.00 77 1007.8
20260906143604 46 327 8.7 15.6 0.00 0.00 0.00 78 1007.8
20260906142704 46 326 7.8 14.8 0.00 0.00 0.00 78 1007.6
20260906141804 46 330 7.8 13.9 0.00 0.00 0.00 80 1007.6
20260906140904 46 329 10.4 19.1 0.00 0.00 0.00 79 1007.5
20260906140006 46 321 7.8 12.2 0.00 0.00 0.00 81 1007.3
20260906135404 46 322 8.7 13.0 0.00 0.00 0.00 80 1007.2
20260906134504 46 320 9.6 15.6 0.00 0.00 0.00 80 1007.1
20260906133604 46 322 9.6 14.8 0.00 0.00 0.00 80 1007.0
20260906132704 46 321 9.6 20.0 0.00 0.00 0.00 79 1006.9
20260906131804 46 328 12.2 20.0 0.00 0.00 0.00 79 1006.7
20260906130904 46 319 11.3 20.0 0.00 0.00 0.00 79 1006.7
20260906130004 46 325 9.6 17.4 0.00 0.00 0.00 80 1006.6
20260906125404 46 326 10.4 17.4 0.00 0.00 0.00 80 1006.5
20260906124504 46 329 10.4 16.5 0.00 0.00 0.00 80 1006.4
20260906123604 46 319 9.6 17.4 0.00 0.00 0.00 80 1006.3
20260906122704 46 317 10.4 17.4 0.00 0.00 0.00 80 1006.1
20260906121804 46 324 10.4 18.2 0.00 0.00 0.00 79 1006.1
20260906120904 46 328 11.3 18.2 0.00 0.00 0.00 80 1006.0
20260906120004 46 328 11.3 20.0 0.00 0.00 0.00 81 1006.1
20260906115404 46 326 9.6 17.4 0.00 0.00 0.00 81 1006.0
20260906114504 46 325 9.6 19.1 0.00 0.00 0.00 80 1005.8
20260906113604 46 329 11.3 20.0 0.00 0.00 0.00 80 1005.7
20260906112704 46 329 9.6 14.8 0.00 0.00 0.00 80 1005.6
20260906111804 46 327 9.6 14.8 0.00 0.00 0.00 80 1005.5
20260906110904 46 326 10.4 18.2 0.00 0.00 0.00 80 1005.3
20260906110004 45 328 9.6 15.6 0.00 0.00 0.00 80 1005.1
20260906105404 45 327 10.4 16.5 0.00 0.00 0.00 81 1005.0
20260906104504 45 322 11.3 18.2 0.00 0.00 0.00 80 1004.8
20260906103604 45 323 10.4 16.5 0.00 0.00 0.00 81 1004.7
20260906102704 45 325 10.4 17.4 0.00 0.00 0.00 80 1004.7
20260906101804 45 327 8.7 14.8 0.00 0.00 0.00 81 1004.7
20260906100904 45 330 10.4 17.4 0.00 0.00 0.00 80 1004.5
20260906100004 45 328 9.6 13.9 0.00 0.00 0.00 81 1004.3
20260906095404 45 323 10.4 13.9 0.00 0.00 0.00 80 1004.2
20260906094504 45 322 11.3 18.2 0.00 0.01 0.00 80 1004.2
20260906093625 45 326 9.6 14.8 0.00 0.02 0.00 80 1004.0
20260906092725 45 326 8.7 15.6 0.00 0.02 0.00 80 1004.1
20260906091804 45 326 8.7 17.4 0.00 0.02 0.00 81 1004.0
20260906090904 45 328 8.7 15.6 0.00 0.02 0.00 82 1003.9
20260906090004 44 325 8.7 14.8 0.00 0.02 0.00 82 1003.8
20260906085404 44 327 9.6 16.5 0.00 0.02 0.00 82 1003.7
20260906084525 44 328 9.6 17.4 0.00 0.02 0.00 82 1003.7
20260906083604 44 327 10.4 16.5 0.00 0.02 0.00 81 1003.5
20260906082704 44 333 8.7 16.5 0.00 0.02 0.00 82 1003.4
20260906081804 44 331 11.3 19.1 0.00 0.02 0.00 81 1003.4
20260906080904 44 330 11.3 16.5 0.00 0.02 0.00 82 1003.2
20260906080004 44 334 8.7 18.2 0.00 0.02 0.00 82 1003.1
20260906075425 44 338 7.8 14.8 0.00 0.02 0.00 82 1003.0
20260906074504 44 331 7.0 13.9 0.00 0.02 0.00 82 1002.9
20260906073604 44 331 8.7 17.4 0.00 0.02 0.00 82 1002.8
20260906072725 44 332 8.7 13.9 0.00 0.02 0.00 83 1002.7
20260906071825 44 329 7.8 15.6 0.00 0.02 0.00 83 1002.5
20260906070904 44 338 6.1 13.0 0.00 0.03 0.00 83 1002.4
20260906070025 44 338 7.8 16.5 0.00 0.04 0.00 82 1002.3
20260906065404 44 333 8.7 20.9 0.00 0.04 0.00 82 1002.3
20260906064504 44 330 8.7 14.8 0.00 0.05 0.00 83 1002.2
20260906063604 44 335 7.0 17.4 0.00 0.05 0.00 82 1002.0
20260906062704 43 335 7.8 17.4 0.00 0.06 0.00 83 1002.0
20260906061804 43 331 11.3 18.2 0.00 0.08 0.00 82 1001.8
20260906060925 43 337 9.6 19.1 0.00 0.10 0.00 83 1001.8
20260906060004 43 339 10.4 22.6 0.00 0.11 0.00 82 1001.7
20260906055404 43 335 9.6 18.2 0.00 0.11 0.00 82 1001.4
20260906054504 43 332 8.7 14.8 0.00 0.11 0.00 82 1001.5
20260906053604 43 335 8.7 16.5 0.00 0.11 0.00 82 1001.4
20260906052704 43 332 8.7 16.5 0.00 0.11 0.00 82 1001.3
20260906051804 42 335 9.6 17.4 0.00 0.12 0.00 82 1001.2
20260906050925 42 333 11.3 18.2 0.00 0.12 0.00 82 1001.2
20260906050004 42 329 10.4 20.9 0.00 0.12 0.00 82 1001.2
20260906045425 42 336 9.6 18.2 0.00 0.12 0.00 82 1001.2
20260906044504 42 331 11.3 20.9 0.00 0.12 0.00 82 1001.0
20260906043604 42 337 7.8 16.5 0.00 0.12 0.00 83 1000.9
20260906042704 42 331 8.7 18.2 0.00 0.12 0.00 83 1000.8
20260906041804 42 329 7.8 15.6 0.00 0.12 0.00 83 1000.8
20260906040904 42 335 7.8 16.5 0.00 0.12 0.00 83 1000.7
20260906040025 42 335 8.7 16.5 0.00 0.12 0.00 82 1000.6
20260906035425 42 333 9.6 18.2 0.00 0.12 0.00 83 1000.6
20260906034504 43 333 9.6 19.1 0.00 0.12 0.00 82 1000.5
20260906033604 43 334 9.6 22.6 0.00 0.12 0.00 82 1000.4
20260906032704 43 329 9.6 18.2 0.00 0.12 0.00 83 1000.4
20260906031804 43 330 8.7 14.8 0.00 0.12 0.00 83 1000.3
20260906030904 43 327 8.7 16.5 0.00 0.12 0.00 82 1000.1
20260906030004 43 325 10.4 19.1 0.00 0.12 0.00 82 1000.0
20260906025425 43 324 10.4 16.5 0.00 0.12 0.00 82 1000.0
20260906024504 43 327 9.6 15.6 0.00 0.12 0.00 83 999.9
20260906023604 43 324 10.4 15.6 0.00 0.12 0.00 83 999.9
20260906022704 43 324 9.6 16.5 0.00 0.12 0.00 83 999.9
20260906021804 43 327 9.6 16.5 0.00 0.12 0.00 83 999.8
20260906020904 43 329 8.7 14.8 0.00 0.12 0.00 84 999.7
20260906020025 43 326 7.0 10.4 0.00 0.12 0.00 85 999.6
20260906015404 43 324 7.0 11.3 0.00 0.12 0.00 85 999.5
20260906014504 43 325 7.8 12.2 0.00 0.12 0.00 86 999.5
20260906013604 43 326 6.1 10.4 0.00 0.12 0.00 86 999.4
20260906012704 44 328 8.7 15.6 0.00 0.12 0.00 85 999.4
20260906011825 44 332 7.0 13.0 0.00 0.12 0.00 86 999.3
20260906010904 44 326 7.0 12.2 0.00 0.12 0.00 86 999.3
20260906010025 44 323 7.8 12.2 0.00 0.12 0.00 86 999.2
20260906005404 44 324 7.0 12.2 0.00 0.12 0.00 86 999.2
20260906004504 43 318 7.8 11.3 0.00 0.12 0.00 86 999.1
20260906003604 43 318 7.0 11.3 0.00 0.12 0.00 86 999.0
20260906002703 43 314 6.1 11.3 0.00 0.12 0.00 87 999.0
20260906001825 43 314 6.1 9.6 0.00 0.12 0.00 88 999.0
20260906000904 42 317 4.3 7.8 0.00 0.12 0.00 88 998.9
20260906000004 42 320 4.3 7.8 0.00 0.12 0.00 88 998.8
20260905235424 42 320 5.2 10.4 0.00 0.12 0.00 88 998.8
20260905234504 42 318 6.1 10.4 0.00 0.12 0.00 88 998.8
20260905233604 42 319 6.1 10.4 0.00 0.12 0.00 87 998.7
20260905232704 42 316 5.2 10.4 0.00 0.12 0.00 87 998.8
20260905231804 42 311 4.3 7.8 0.00 0.12 0.00 86 998.8
20260905230925 43 313 4.3 7.0 0.00 0.12 0.00 86 998.8
20260905230004 43 314 3.5 7.8 0.00 0.12 0.00 85 998.7
20260905225404 43 319 4.3 9.6 0.00 0.12 0.00 85 998.7
20260905224504 43 323 5.2 10.4 0.00 0.12 0.00 84 998.8
20260905223603 44 326 7.0 12.2 0.00 0.12 0.00 84 998.8
20260905222704 44 326 7.0 11.3 0.00 0.12 0.00 83 998.7